Location: Ch�ze
(42.9000°N, 0.0333°W)
Time: 23:03:50
(UTC+00:00)

NOSS 2-1 (E) - Pass Details

Date: 24 January 2021
Orbit: 434 x 1768 km, 63.3° (Epoch: 23 February)

Event Time Altitude Azimuth Distance (km) Brightness Sun altitude
Rises 17:41:54 0° 190° (S) 2,517 7.1 -7.5°
Reaches altitude 10° 17:44:16 10° 177° (S) 1,572 5.9 -7.9°
Maximum altitude 17:47:08 26° 118° (ESE) 887 4.0 -8.4°
Enters shadow 17:49:40 12° 62° (ENE) 1,448 4.8 -8.8°
